Погода в Баянголе

Россия / Республика Бурятия     50°42′01″N   103°28′09″E
темп.,
°C
ветер,
м/с
пор.,
м/с
влажн.,
%
обл.,
%
осадки,
мм/ч
давл.,
гПа
погр.,
м
5 декабря, вс
вс523:00−10сз118258 0.0 102510
02:00−11сз11858 0.0 102610
05:00−12з118839 0.0 102813
08:00−13зсз21802 0.0 103021
11:00−10з12602 0.0 103288
14:00−6зюз16431 0.0 1030558
17:00−9з11690 0.0 103113
20:00−11зсз11805 0.0 103410
6 декабря, пн
пн623:00−12з118499 0.0 103410
02:00−13зюз2181100 0.0 103319
05:00−12з2176100 0.0 103230
08:00−13зюз217641 0.0 103124
11:00−10зюз126073 0.0 1030107
14:00−6юз23435 0.0 1025263
17:00−10зюз21652 0.0 102711
20:00−11з217641 0.0 102915
7 декабря, вт
вт723:00−12з217984 0.0 102915
02:00−13з217256 0.0 102915
05:00−13з116740 0.0 102911
08:00−13зсз116719 0.0 102911
11:00−10з1152100 0.0 102752
14:00−6юз1141100 0.0 1022112
17:00−9зюз115685 0.0 102210
20:00−11з2159100 0.0 102211
8 декабря, ср
ср823:00−11з2162100 0.0 102113
02:00−11зсз1163100 0.0 102112
05:00−11ссз1161100 0.0 102111
08:00−10с1169100 0.0 102310
11:00−8с1171100 0.0 102353
14:00−5св1165100 0.0 1022296
17:00−7в1196100 0.3 102510
20:00−9всв1198100 0.8 102712
9 декабря, чт
чт923:00−10св1296100 0.3 102957
02:00−11св1194100 0.6 102979
05:00−11ссв1195100 0.3 102941
08:00−11ссв1194100 0.4 103059
11:00−11св1284100 0.1 1031205
14:00−10всв1285100 0.3 1031346
17:00−11всв2393100 0.4 1034205
20:00−15ссв2391100 0.4 1041152